Flag for Iran Weather past 2 weeks in Esfahãn, Iran

32 °F


Feels Like: 32 °F
Forecast: 28 / 57 °F
Wind: No wind

Location: Esfahan

Current Time: Nov 29, 2015 at 4:27:14 AM

Latest Report: Nov 29, 2015 at 3:00 AM

Visibility: 10 mi

Pressure: 30.18 "Hg (24.78 "Hg at 1576m altitude)

Humidity: 55%

Dew point: 18 °F

Location of EsfahãnLocation

Historic Weather in Esfahãn — Graph


Esfahãn temperature yesterday

Maximum temperature yesterday: 63 °F (at 2:30 PM)
Minimum temperature yesterday: 23 °F (at 6:00 AM)
Average temperature yesterday: 43 °F

Past Weeks' High & Low Weather Summary

High68 °F (Nov 18, 2:00 PM)87% (Nov 21, 6:30 AM)30.42 "Hg (Nov 21, 6:30 AM)
Low19 °F (Nov 26, 3:30 AM)9% (Nov 14, 2:30 PM)29.89 "Hg (Nov 18, 2:00 PM)
Average44 °F37%30.18 "Hg
* Reported Nov 14 2:30 AM — Nov 29 3:00 AM, Esfahãn, Weather by CustomWeather, © 2015

Note: Actual official high and low records may vary slightly from our data, if they occured in-between our weather recording intervals... More about our weather records


Esfahãn weather history for previous 24 hours

Time TempWeatherWind HumidityBarometerVisibility
3:00 AM
Sun, Nov 29
32 °FClear.No wind55%30.18 "Hg10 mi
2:30 AM32 °FClear.No wind47%30.15 "Hg10 mi
1:30 AM37 °FClear.5 mph48%30.18 "Hg10 mi
1:00 AM39 °FClear.5 mph45%30.15 "Hg10 mi
12:00 AM39 °FPassing clouds.5 mph42%30.18 "HgN/A
11:30 PM
Sat, Nov 28
37 °FPassing clouds.7 mph45%30.18 "HgN/A
11:00 PM36 °FPassing clouds.5 mph38%30.15 "HgN/A
10:30 PM37 °FPassing clouds.No wind38%30.15 "HgN/A
10:00 PM39 °FPassing clouds.5 mph36%30.15 "HgN/A
9:30 PM43 °FPassing clouds.5 mph36%30.15 "HgN/A
9:00 PM45 °FPassing clouds.9 mph34%30.15 "HgN/A
8:30 PM45 °FPassing clouds.7 mph34%30.12 "HgN/A
8:00 PM45 °FPassing clouds.7 mph37%30.12 "HgN/A
7:30 PM45 °FPassing clouds.9 mph37%30.12 "HgN/A
7:00 PM48 °FPassing clouds.9 mph34%30.12 "HgN/A
6:30 PM52 °FPassing clouds.7 mph32%30.12 "HgN/A
6:00 PM52 °FPassing clouds.5 mph30%30.09 "HgN/A
5:30 PM55 °FPassing clouds.7 mph26%30.09 "HgN/A
5:00 PM57 °FPassing clouds.7 mph25%30.09 "HgN/A
4:30 PM63 °FPassing clouds.5 mph20%30.09 "HgN/A
4:00 PM63 °FPassing clouds.7 mph20%30.09 "HgN/A
3:30 PM63 °FPassing clouds.7 mph20%30.09 "HgN/A
3:00 PM63 °FPassing clouds.7 mph22%30.09 "HgN/A
2:30 PM63 °FPassing clouds.5 mph24%30.09 "HgN/A
2:00 PM61 °FPassing clouds.No wind25%30.09 "HgN/A
1:30 PM61 °FPassing clouds.7 mph27%30.12 "HgN/A
1:00 PM61 °FPassing clouds.7 mph27%30.12 "HgN/A
12:30 PM59 °FPassing clouds.7 mph29%30.15 "HgN/A
12:00 PM57 °FPassing clouds.5 mph29%30.15 "HgN/A
11:30 AM55 °FPassing clouds.5 mph33%30.18 "HgN/A
10:00 AM48 °FSunny.5 mph37%30.21 "Hg10 mi
9:30 AM46 °FSunny.5 mph37%30.21 "Hg10 mi
9:00 AM45 °FSunny.No wind37%30.21 "Hg10 mi
8:30 AM37 °FSunny.5 mph45%30.21 "Hg10 mi
8:00 AM32 °FSunny.5 mph51%30.21 "Hg10 mi
7:30 AM28 °FSunny.5 mph55%30.18 "Hg10 mi
7:00 AM27 °FClear.5 mph64%30.18 "Hg10 mi
6:30 AM23 °FClear.5 mph54%30.15 "Hg10 mi
6:00 AM23 °FClear.5 mph46%30.15 "Hg5 mi
5:30 AM25 °FClear.5 mph50%30.15 "Hg4 mi
5:00 AM27 °FClear.No wind54%30.15 "Hg4 mi
4:30 AM28 °FClear.7 mph51%30.15 "Hg4 mi
4:00 AM30 °FClear.5 mph51%30.15 "Hg4 mi
Weather by CustomWeather, © 2015

See weather overviewHow to use our weather pages